Regional Weather Roundup
Issued by NWS

Current Version | Previous Version | Text Only | Print | Product List | Glossary On
Versions: 1 2 3 4 5 6 7 8 9 10 11 12 13 14 15 16 17 18 19 20 21 22 23 24 25 26 27 28 29 30 31 32 33 34 35 36 37 38 39 40 41 42 43 44 45 46 47 48 49 50
000
ASCA42 TJSJ 252110
RWRPR
PUERTO RICO/U.S. VIRGIN ISLANDS HOURLY WEATHER ROUNDUP
NATIONAL WEATHER SERVICE SAN JUAN PR
500 PM AST MON SEP 25 2017

PRZ001>002-007>008-010-252200-
PUERTO RICO

CITY           SKY/WX    TMP DP  RH WIND       PRES   REMARKS
SAN JUAN LMM   MOSUNNY   91  73  55 S13G18    29.85F HX 100
$$

VIZ001>002-252200-
U.S. VIRGIN ISLANDS

CITY           SKY/WX    TMP DP  RH WIND       PRES   REMARKS
$$

HOURLY WEATHER ROUNDUP FOR THE NEWS MEDIA

CITY           SKY/WX    TMP DP  RH WIND       PRES   REMARKS
ORLANDO        MOSUNNY   91  67  44 N6        29.82F HX  94
NEW YORK       MOSUNNY   78  65  63 SE8       30.03S
NEWARK         MOSUNNY   84  61  45 SE9       30.00S
CHICAGO        MOSUNNY   91  55  29 SE12      29.91F
HARTFORD       SUNNY     74  68  81 SE10      30.04S
BOSTON         SUNNY     74  64  71 E8        30.05F
DALLAS         PTSUNNY   90  62  39 SE18      29.81F HX  90
PHILADELPHIA   MOSUNNY   89  68  49 SE9       29.99R HX  93
LOS ANGELES    MOSUNNY   80  48  32 W12       29.81F
WASHINGTON DC  PTSUNNY   86  66  51 E7        29.99S


USA.gov is the U.S. government's official web portal to all federal, state and local government web resources and services.